When you browse on this site, cookies collect data to enhance your experience and personalize the content and advertising you see.
Visit our Privacy Policy to learn more. By continuing to use the site, you agree to this use of cookies and data.
  • în România
  • Lista ţărilor
  • Pe 7 zile
  • Temperatura apei
  • Meteo pe hartă
  • Widget-uri
  • user-avatar
    Intrare

    Meteo pe oră la Skarżysko-Kamienna

    Astăzi, 25 Ianuarie, Sâmbătă

    Timp Temperatura Precipitaţii Vânt Presiune Umiditate
    00:00 -3°C° 0 mm 4 m/s 744 mmHg 74%
    01:00 -4°C° 0 mm 5 m/s 743 mmHg 73%
    02:00 -3°C° 0 mm 4 m/s 743 mmHg 72%
    03:00 -3°C° 0 mm 4 m/s 743 mmHg 72%
    04:00 -3°C° 0 mm 4 m/s 744 mmHg 71%
    05:00 -3°C° 0 mm 4 m/s 743 mmHg 70%
    06:00 -2°C° 0 mm 4 m/s 743 mmHg 69%
    07:00 -2°C° 0 mm 4 m/s 743 mmHg 67%
    08:00 -2°C° 0 mm 4 m/s 744 mmHg 66%
    09:00 -1°C° 0 mm 4 m/s 744 mmHg 65%
    10:00 -1°C° 0 mm 4 m/s 744 mmHg 64%
    11:00 -1°C° 0 mm 4 m/s 744 mmHg 62%
    12:00 0°C° 0 mm 4 m/s 744 mmHg 60%
    13:00 0°C° 0 mm 4 m/s 744 mmHg 58%
    14:00 +1°C° 0 mm 3 m/s 744 mmHg 60%
    15:00 +1°C° 0 mm 3 m/s 744 mmHg 62%
    16:00 +1°C° 0 mm 2 m/s 744 mmHg 64%
    17:00 +1°C° 0 mm 2 m/s 744 mmHg 66%
    18:00 -1°C° 0 mm 2 m/s 744 mmHg 68%
    19:00 -1°C° 0 mm 2 m/s 744 mmHg 70%
    20:00 -1°C° 0 mm 2 m/s 744 mmHg 71%
    21:00 -1°C° 0 mm 2 m/s 745 mmHg 71%
    22:00 -1°C° 0 mm 2 m/s 745 mmHg 72%
    23:00 -1°C° 0 mm 2 m/s 745 mmHg 72%

    Mâine, 26 Ianuarie, Duminică

    Timp Temperatura Precipitaţii Vânt Presiune Umiditate
    00:00 -1°C° 0 mm 2 m/s 745 mmHg 71%
    01:00 -1°C° 0 mm 2 m/s 745 mmHg 71%
    02:00 -1°C° 0 mm 2 m/s 745 mmHg 71%
    03:00 +1°C° 0 mm 1 m/s 744 mmHg 71%
    04:00 +1°C° 0 mm 1 m/s 744 mmHg 71%
    05:00 +1°C° 0 mm 1 m/s 744 mmHg 71%
    06:00 +1°C° 0 mm 1 m/s 744 mmHg 71%
    07:00 +1°C° 0 mm 1 m/s 745 mmHg 72%
    08:00 +2°C° 0 mm 1 m/s 745 mmHg 70%
    09:00 +1°C° 0 mm 2 m/s 745 mmHg 68%
    10:00 +2°C° 0 mm 2 m/s 745 mmHg 66%
    11:00 +2°C° 0 mm 2 m/s 744 mmHg 65%
    12:00 +3°C° 0 mm 2 m/s 744 mmHg 63%
    13:00 +3°C° 0 mm 2 m/s 744 mmHg 62%
    14:00 +3°C° 0 mm 1 m/s 743 mmHg 64%
    15:00 +3°C° 0 mm 1 m/s 743 mmHg 67%
    16:00 +2°C° 0 mm 1 m/s 743 mmHg 70%
    17:00 +2°C° 0 mm 1 m/s 743 mmHg 70%
    18:00 +2°C° 0 mm 1 m/s 743 mmHg 70%
    19:00 -1°C° 0 mm 2 m/s 743 mmHg 71%
    20:00 -1°C° 0 mm 2 m/s 743 mmHg 71%
    21:00 -1°C° 0 mm 2 m/s 742 mmHg 72%
    22:00 -1°C° 0 mm 2 m/s 742 mmHg 72%
    23:00 -1°C° 0 mm 2 m/s 742 mmHg 74%

    Poimâine, 27 Ianuarie, Luni

    Timp Temperatura Precipitaţii Vânt Presiune Umiditate
    00:00 -1°C° 0 mm 2 m/s 742 mmHg 75%
    01:00 -1°C° 0 mm 2 m/s 742 mmHg 77%
    02:00 -1°C° 0 mm 2 m/s 741 mmHg 78%
    03:00 -1°C° 0 mm 2 m/s 741 mmHg 79%
    04:00 -1°C° 0 mm 2 m/s 741 mmHg 80%
    05:00 -1°C° 0 mm 2 m/s 741 mmHg 81%
    06:00 -1°C° 0 mm 2 m/s 741 mmHg 81%
    07:00 -1°C° 0 mm 2 m/s 740 mmHg 82%
    08:00 +1°C° 0 mm 2 m/s 740 mmHg 79%
    09:00 +1°C° 0 mm 2 m/s 740 mmHg 77%
    10:00 +1°C° 0 mm 3 m/s 740 mmHg 75%
    11:00 +2°C° 0.2 mm 2 m/s 740 mmHg 78%
    12:00 +2°C° 0.2 mm 2 m/s 740 mmHg 82%
    13:00 +3°C° 0.2 mm 2 m/s 740 mmHg 85%
    14:00 +2°C° 0.4 mm 2 m/s 739 mmHg 88%
    15:00 +2°C° 0.4 mm 2 m/s 739 mmHg 91%
    16:00 +2°C° 0.4 mm 2 m/s 739 mmHg 94%
    17:00 +1°C° 0 mm 3 m/s 739 mmHg 93%
    18:00 +1°C° 0 mm 3 m/s 739 mmHg 91%
    19:00 +1°C° 0 mm 3 m/s 739 mmHg 90%
    20:00 0°C° 0 mm 3 m/s 738 mmHg 90%
    21:00 0°C° 0 mm 3 m/s 738 mmHg 90%
    22:00 0°C° 0 mm 3 m/s 738 mmHg 90%
    23:00 0°C° 0 mm 3 m/s 738 mmHg 89%

    28 Ianuarie, Marţi

    Timp Temperatura Precipitaţii Vânt Presiune Umiditate
    00:00 0°C° 0 mm 3 m/s 737 mmHg 89%
    01:00 0°C° 0 mm 3 m/s 737 mmHg 89%
    02:00 0°C° 0 mm 3 m/s 736 mmHg 89%
    03:00 0°C° 0 mm 3 m/s 736 mmHg 88%
    04:00 0°C° 0 mm 3 m/s 735 mmHg 87%
    05:00 0°C° 0 mm 3 m/s 735 mmHg 87%
    06:00 0°C° 0 mm 3 m/s 735 mmHg 86%
    07:00 0°C° 0 mm 3 m/s 734 mmHg 85%
    08:00 0°C° 0 mm 3 m/s 734 mmHg 83%
    09:00 +1°C° 0 mm 3 m/s 734 mmHg 80%
    10:00 +2°C° 0 mm 3 m/s 733 mmHg 77%
    11:00 +1°C° 0 mm 4 m/s 732 mmHg 76%
    12:00 +3°C° 0 mm 4 m/s 731 mmHg 75%
    13:00 +2°C° 0 mm 5 m/s 731 mmHg 73%
    14:00 +3°C° 0 mm 4 m/s 730 mmHg 75%
    15:00 +3°C° 0 mm 4 m/s 730 mmHg 76%
    16:00 +3°C° 0 mm 4 m/s 729 mmHg 78%
    17:00 +3°C° 0.3 mm 4 m/s 729 mmHg 83%
    18:00 +1°C° 0.3 mm 4 m/s 729 mmHg 89%
    19:00 +2°C° 0.3 mm 3 m/s 728 mmHg 94%
    20:00 +2°C° 0.5 mm 3 m/s 728 mmHg 95%
    21:00 +1°C° 0.5 mm 4 m/s 728 mmHg 95%
    22:00 +1°C° 0.5 mm 4 m/s 728 mmHg 95%
    23:00 +1°C° 0.2 mm 4 m/s 727 mmHg 95%

    29 Ianuarie, Miercuri

    Timp Temperatura Precipitaţii Vânt Presiune Umiditate
    00:00 +1°C° 0.2 mm 4 m/s 727 mmHg 95%
    01:00 +1°C° 0.2 mm 4 m/s 727 mmHg 95%
    02:00 0°C° 0.3 mm 5 m/s 727 mmHg 95%
    03:00 -1°C° 0.3 mm 6 m/s 727 mmHg 95%
    04:00 -1°C° 0.3 mm 7 m/s 727 mmHg 95%
    05:00 -1°C° 0.2 mm 7 m/s 728 mmHg 88%
    06:00 -1°C° 0.2 mm 6 m/s 728 mmHg 81%
    07:00 -2°C° 0.2 mm 6 m/s 729 mmHg 74%
    08:00 -1°C° 0 mm 6 m/s 729 mmHg 72%
    09:00 0°C° 0 mm 5 m/s 729 mmHg 69%
    10:00 0°C° 0 mm 5 m/s 729 mmHg 67%
    11:00 0°C° 0 mm 5 m/s 729 mmHg 64%
    12:00 +1°C° 0 mm 4 m/s 729 mmHg 61%
    13:00 +3°C° 0 mm 4 m/s 728 mmHg 58%
    14:00 +1°C° 0.3 mm 4 m/s 728 mmHg 69%
    15:00 +1°C° 0.3 mm 3 m/s 728 mmHg 80%
    16:00 0°C° 0.3 mm 3 m/s 728 mmHg 91%
    17:00 0°C° 0.7 mm 3 m/s 728 mmHg 93%
    18:00 +1°C° 0.7 mm 2 m/s 728 mmHg 94%
    19:00 +1°C° 0.7 mm 2 m/s 728 mmHg 96%
    20:00 -1°C° 0.8 mm 4 m/s 729 mmHg 96%
    21:00 -1°C° 0.8 mm 5 m/s 730 mmHg 96%
    22:00 -3°C° 0.8 mm 6 m/s 730 mmHg 97%
    23:00 -2°C° 0.3 mm 6 m/s 731 mmHg 93%

    30 Ianuarie, Joi

    Timp Temperatura Precipitaţii Vânt Presiune Umiditate
    00:00 -1°C° 0.3 mm 5 m/s 732 mmHg 89%
    01:00 -1°C° 0.3 mm 5 m/s 733 mmHg 85%
    02:00 -1°C° 0 mm 5 m/s 733 mmHg 86%
    03:00 -2°C° 0 mm 5 m/s 734 mmHg 87%
    04:00 -3°C° 0 mm 6 m/s 734 mmHg 89%
    05:00 -2°C° 0.1 mm 5 m/s 735 mmHg 91%
    06:00 -2°C° 0.1 mm 5 m/s 735 mmHg 93%
    07:00 -2°C° 0.1 mm 5 m/s 735 mmHg 95%
    08:00 -2°C° 0.2 mm 5 m/s 736 mmHg 95%
    09:00 -2°C° 0.2 mm 6 m/s 736 mmHg 95%
    10:00 -2°C° 0.2 mm 6 m/s 736 mmHg 95%
    11:00 -2°C° 0.4 mm 6 m/s 737 mmHg 95%
    12:00 -2°C° 0.4 mm 7 m/s 737 mmHg 95%
    13:00 -2°C° 0.4 mm 7 m/s 737 mmHg 95%
    14:00 -2°C° 0.1 mm 7 m/s 737 mmHg 95%
    15:00 -2°C° 0.1 mm 7 m/s 737 mmHg 95%
    16:00 -2°C° 0.1 mm 7 m/s 737 mmHg 96%
    17:00 -2°C° 0.2 mm 7 m/s 737 mmHg 95%
    18:00 -2°C° 0.2 mm 7 m/s 738 mmHg 93%
    19:00 -2°C° 0.2 mm 7 m/s 738 mmHg 92%
    20:00 -2°C° 0.1 mm 6 m/s 738 mmHg 92%
    21:00 -2°C° 0.1 mm 6 m/s 737 mmHg 91%
    22:00 -2°C° 0.1 mm 6 m/s 737 mmHg 91%
    23:00 -3°C° 0.6 mm 6 m/s 737 mmHg 92%
    Arată mai mult